Time,TemperatureF,DewpointF,PressureIn,WindDirection,WindDirectionDegrees,WindSpeedMPH,WindSpeedGustMPH,Humidity,HourlyPrecipIn,Conditions,Clouds,dailyrainin,SolarRadiationWatts/m^2,SoftwareType,DateUTC
2013-08-02 00:22:00,68.0,68.0,-100.00,ESE,122,2.0,5.0,100,0.00,,,0.00,1.000000,,2013-08-02 04:22:00,
2013-08-02 00:33:00,68.0,68.0,-100.00,ESE,122,2.0,5.0,100,0.00,,,0.00,1.000000,,2013-08-02 04:33:00,
2013-08-02 00:43:00,68.0,68.0,-100.00,ESE,122,2.0,5.0,100,0.00,,,0.00,1.000000,,2013-08-02 04:43:00,
2013-08-02 00:53:00,68.0,68.0,-100.00,ESE,122,2.0,5.0,100,0.00,,,0.00,1.000000,,2013-08-02 04:53:00,
2013-08-02 01:32:00,67.0,67.0,-100.00,ESE,105,2.0,8.0,100,0.00,,,0.00,1.000000,,2013-08-02 05:32:00,
2013-08-02 01:43:00,67.0,67.0,-100.00,ESE,105,2.0,8.0,100,0.00,,,0.00,1.000000,,2013-08-02 05:43:00,
2013-08-02 01:53:00,67.0,67.0,-100.00,ESE,105,2.0,8.0,100,0.00,,,0.00,1.000000,,2013-08-02 05:53:00,
2013-08-02 02:22:00,64.0,64.0,-100.00,West,264,0.0,2.0,100,0.00,,,0.00,1.000000,,2013-08-02 06:22:00,
2013-08-02 02:33:00,64.0,64.0,-100.00,West,264,0.0,2.0,100,0.00,,,0.00,1.000000,,2013-08-02 06:33:00,
2013-08-02 02:43:00,64.0,64.0,-100.00,West,264,0.0,2.0,100,0.00,,,0.00,1.000000,,2013-08-02 06:43:00,
2013-08-02 02:52:00,64.0,64.0,-100.00,West,264,0.0,2.0,100,0.00,,,0.00,1.000000,,2013-08-02 06:52:00,
2013-08-02 03:22:00,63.0,63.0,-100.00,West,265,1.0,3.0,100,0.00,,,0.00,1.000000,,2013-08-02 07:22:00,
2013-08-02 03:33:00,63.0,63.0,-100.00,West,265,1.0,3.0,100,0.00,,,0.00,1.000000,,2013-08-02 07:33:00,
2013-08-02 03:44:00,63.0,63.0,-100.00,West,265,1.0,3.0,100,0.00,,,0.00,1.000000,,2013-08-02 07:44:00,
2013-08-02 03:53:00,63.0,63.0,-100.00,West,265,1.0,3.0,100,0.00,,,0.00,1.000000,,2013-08-02 07:53:00,
2013-08-02 04:22:00,63.0,63.0,-100.00,WSW,252,0.0,2.0,100,0.00,,,0.00,1.000000,,2013-08-02 08:22:00,
2013-08-02 04:33:00,63.0,63.0,-100.00,WSW,252,0.0,2.0,100,0.00,,,0.00,1.000000,,2013-08-02 08:33:00,
2013-08-02 04:43:00,63.0,63.0,-100.00,WSW,252,0.0,2.0,100,0.00,,,0.00,1.000000,,2013-08-02 08:43:00,
2013-08-02 04:54:00,63.0,63.0,-100.00,WSW,252,0.0,2.0,100,0.00,,,0.00,1.000000,,2013-08-02 08:54:00,
2013-08-02 05:23:00,63.0,63.0,-100.00,SW,233,0.0,2.0,100,0.00,,,0.00,1.000000,,2013-08-02 09:23:00,
2013-08-02 05:33:00,63.0,63.0,-100.00,SW,233,0.0,2.0,100,0.00,,,0.00,1.000000,,2013-08-02 09:33:00,
2013-08-02 05:44:00,63.0,63.0,-100.00,SW,233,0.0,2.0,100,0.00,,,0.00,1.000000,,2013-08-02 09:44:00,
2013-08-02 05:53:00,63.0,63.0,-100.00,SW,233,0.0,2.0,100,0.00,,,0.00,1.000000,,2013-08-02 09:53:00,
2013-08-02 06:23:00,63.0,63.0,-100.00,SSW,205,0.0,2.0,100,0.00,,,0.00,1.000000,,2013-08-02 10:23:00,
2013-08-02 06:33:00,63.0,63.0,-100.00,SSW,205,0.0,2.0,100,0.00,,,0.00,1.000000,,2013-08-02 10:33:00,
2013-08-02 06:43:00,63.0,63.0,-100.00,SSW,205,0.0,2.0,100,0.00,,,0.00,1.000000,,2013-08-02 10:43:00,
2013-08-02 06:52:00,63.0,63.0,-100.00,SSW,205,0.0,2.0,100,0.00,,,0.00,1.000000,,2013-08-02 10:52:00,
2013-08-02 07:23:00,62.0,62.0,-100.00,SW,218,1.0,2.0,100,0.00,,,0.00,11.000000,,2013-08-02 11:23:00,
2013-08-02 07:33:00,62.0,62.0,-100.00,SW,218,1.0,2.0,100,0.00,,,0.00,11.000000,,2013-08-02 11:33:00,
2013-08-02 07:43:00,62.0,62.0,-100.00,SW,218,1.0,2.0,100,0.00,,,0.00,11.000000,,2013-08-02 11:43:00,
2013-08-02 07:52:00,62.0,62.0,-100.00,SW,218,1.0,2.0,100,0.00,,,0.00,11.000000,,2013-08-02 11:52:00,
2013-08-02 08:22:00,63.0,63.0,-100.00,WSW,255,1.0,3.0,100,0.00,,,0.00,80.000000,,2013-08-02 12:22:00,
2013-08-02 08:33:00,63.0,63.0,-100.00,WSW,255,1.0,3.0,100,0.00,,,0.00,80.000000,,2013-08-02 12:33:00,
2013-08-02 08:43:00,63.0,63.0,-100.00,WSW,255,1.0,3.0,100,0.00,,,0.00,80.000000,,2013-08-02 12:43:00,
2013-08-02 08:52:00,63.0,63.0,-100.00,WSW,255,1.0,3.0,100,0.00,,,0.00,80.000000,,2013-08-02 12:52:00,
2013-08-02 09:22:00,68.0,68.0,-100.00,WSW,248,2.0,5.0,100,0.00,,,0.00,325.000000,,2013-08-02 13:22:00,
2013-08-02 09:33:00,68.0,68.0,-100.00,WSW,248,2.0,5.0,100,0.00,,,0.00,325.000000,,2013-08-02 13:33:00,
2013-08-02 09:43:00,68.0,68.0,-100.00,WSW,248,2.0,5.0,100,0.00,,,0.00,325.000000,,2013-08-02 13:43:00,
2013-08-02 09:52:00,68.0,68.0,-100.00,WSW,248,2.0,5.0,100,0.00,,,0.00,325.000000,,2013-08-02 13:52:00,
2013-08-02 10:22:00,72.0,67.0,-100.00,West,264,3.0,9.0,84,0.00,,,0.00,526.000000,,2013-08-02 14:22:00,
2013-08-02 10:32:00,72.0,67.0,-100.00,West,264,3.0,9.0,84,0.00,,,0.00,526.000000,,2013-08-02 14:32:00,
2013-08-02 10:43:00,72.0,67.0,-100.00,West,264,3.0,9.0,84,0.00,,,0.00,526.000000,,2013-08-02 14:43:00,
2013-08-02 10:53:00,72.0,67.0,-100.00,West,264,3.0,9.0,84,0.00,,,0.00,526.000000,,2013-08-02 14:53:00,
2013-08-02 11:22:00,74.0,63.0,-100.00,WNW,295,2.0,9.0,69,0.00,,,-99.99,658.000000,,2013-08-02 15:22:00,
2013-08-02 11:32:00,74.0,63.0,-100.00,WNW,295,2.0,9.0,69,0.00,,,-99.99,658.000000,,2013-08-02 15:32:00,
2013-08-02 11:43:00,74.0,63.0,-100.00,WNW,295,2.0,9.0,69,0.00,,,-99.99,658.000000,,2013-08-02 15:43:00,
2013-08-02 11:52:00,74.0,63.0,-100.00,WNW,295,2.0,9.0,69,0.00,,,-99.99,658.000000,,2013-08-02 15:52:00,
2013-08-02 12:32:00,75.0,60.0,-100.00,SSW,209,5.0,8.0,59,0.00,,,-99.99,829.000000,,2013-08-02 16:32:00,
2013-08-02 12:43:00,75.0,60.0,-100.00,SSW,209,5.0,8.0,59,0.00,,,-99.99,829.000000,,2013-08-02 16:43:00,
2013-08-02 12:52:00,75.0,60.0,-100.00,SSW,209,5.0,8.0,59,0.00,,,-99.99,829.000000,,2013-08-02 16:52:00,
2013-08-02 13:22:00,78.0,59.0,-100.00,West,261,5.0,10.0,52,0.00,,,0.00,805.000000,,2013-08-02 17:22:00,
2013-08-02 13:35:00,78.0,59.0,-100.00,West,261,5.0,10.0,52,0.00,,,0.00,805.000000,,2013-08-02 17:35:00,
2013-08-02 13:43:00,78.0,59.0,-100.00,West,261,5.0,10.0,52,0.00,,,0.00,805.000000,,2013-08-02 17:43:00,
2013-08-02 13:52:00,78.0,59.0,-100.00,West,261,5.0,10.0,52,0.00,,,0.00,805.000000,,2013-08-02 17:52:00,
2013-08-02 14:22:00,77.0,63.0,-100.00,SSW,209,2.0,9.0,62,0.00,,,0.00,525.000000,,2013-08-02 18:22:00,
2013-08-02 14:32:00,77.0,63.0,-100.00,SSW,209,2.0,9.0,62,0.00,,,0.00,525.000000,,2013-08-02 18:32:00,
2013-08-02 14:43:00,77.0,63.0,-100.00,SSW,209,2.0,9.0,62,0.00,,,0.00,525.000000,,2013-08-02 18:43:00,
2013-08-02 14:52:00,77.0,63.0,-100.00,SSW,209,2.0,9.0,62,0.00,,,0.00,525.000000,,2013-08-02 18:52:00,
2013-08-02 15:22:00,78.0,60.0,-100.00,West,274,5.0,10.0,54,0.00,,,0.00,575.000000,,2013-08-02 19:22:00,
2013-08-02 15:32:00,78.0,60.0,-100.00,West,274,5.0,10.0,54,0.00,,,0.00,575.000000,,2013-08-02 19:32:00,
2013-08-02 15:43:00,78.0,60.0,-100.00,West,274,5.0,10.0,54,0.00,,,0.00,575.000000,,2013-08-02 19:43:00,
2013-08-02 15:52:00,78.0,60.0,-100.00,West,274,5.0,10.0,54,0.00,,,0.00,575.000000,,2013-08-02 19:52:00,
2013-08-02 16:22:00,76.0,63.0,-100.00,West,261,2.0,10.0,65,0.00,,,0.00,407.000000,,2013-08-02 20:22:00,
2013-08-02 16:32:00,76.0,63.0,-100.00,West,261,2.0,10.0,65,0.00,,,0.00,407.000000,,2013-08-02 20:32:00,
2013-08-02 16:43:00,76.0,63.0,-100.00,West,261,2.0,10.0,65,0.00,,,0.00,407.000000,,2013-08-02 20:43:00,
2013-08-02 16:52:00,76.0,63.0,-100.00,West,261,2.0,10.0,65,0.00,,,0.00,407.000000,,2013-08-02 20:52:00,
2013-08-02 17:22:00,73.0,62.0,-100.00,WSW,248,3.0,11.0,68,0.00,,,0.00,246.000000,,2013-08-02 21:22:00,
2013-08-02 17:32:00,73.0,62.0,-100.00,WSW,248,3.0,11.0,68,0.00,,,0.00,246.000000,,2013-08-02 21:32:00,
2013-08-02 17:43:00,73.0,62.0,-100.00,WSW,248,3.0,11.0,68,0.00,,,0.00,246.000000,,2013-08-02 21:43:00,
2013-08-02 17:53:00,73.0,62.0,-100.00,WSW,248,3.0,11.0,68,0.00,,,0.00,246.000000,,2013-08-02 21:53:00,
2013-08-02 18:32:00,76.0,61.0,-100.00,West,269,4.0,9.0,60,0.00,,,0.00,275.000000,,2013-08-02 22:32:00,
2013-08-02 18:43:00,76.0,61.0,-100.00,West,269,4.0,9.0,60,0.00,,,0.00,275.000000,,2013-08-02 22:43:00,
2013-08-02 18:52:00,76.0,61.0,-100.00,West,269,4.0,9.0,60,0.00,,,0.00,275.000000,,2013-08-02 22:52:00,
2013-08-02 19:22:00,72.0,60.0,-100.00,West,265,3.0,13.0,65,0.00,,,0.00,129.000000,,2013-08-02 23:22:00,
2013-08-02 19:32:00,72.0,60.0,-100.00,West,265,3.0,13.0,65,0.00,,,0.00,129.000000,,2013-08-02 23:32:00,
2013-08-02 19:43:00,72.0,60.0,-100.00,West,265,3.0,13.0,65,0.00,,,0.00,129.000000,,2013-08-02 23:43:00,
2013-08-02 19:53:00,72.0,60.0,-100.00,West,265,3.0,13.0,65,0.00,,,0.00,129.000000,,2013-08-02 23:53:00,
2013-08-02 20:33:00,67.0,64.0,-100.00,WSW,248,0.0,3.0,90,0.00,,,0.00,44.000000,,2013-08-03 00:33:00,
2013-08-02 20:43:00,67.0,64.0,-100.00,WSW,248,0.0,3.0,90,0.00,,,0.00,44.000000,,2013-08-03 00:43:00,
2013-08-02 20:52:00,67.0,64.0,-100.00,WSW,248,0.0,3.0,90,0.00,,,0.00,44.000000,,2013-08-03 00:52:00,
2013-08-02 21:33:00,63.0,63.0,-100.00,West,268,0.0,2.0,100,0.00,,,0.00,5.000000,,2013-08-03 01:33:00,
2013-08-02 21:42:00,63.0,63.0,-100.00,West,268,0.0,2.0,100,0.00,,,0.00,5.000000,,2013-08-03 01:42:00,
2013-08-02 21:53:00,63.0,63.0,-100.00,West,268,0.0,2.0,100,0.00,,,0.00,5.000000,,2013-08-03 01:53:00,
2013-08-02 22:32:00,61.0,61.0,-100.00,WNW,283,0.0,2.0,100,0.00,,,0.00,1.000000,,2013-08-03 02:32:00,
2013-08-02 22:43:00,61.0,61.0,-100.00,WNW,283,0.0,2.0,100,0.00,,,0.00,1.000000,,2013-08-03 02:43:00,
2013-08-02 22:52:00,61.0,61.0,-100.00,WNW,283,0.0,2.0,100,0.00,,,0.00,1.000000,,2013-08-03 02:52:00,
2013-08-02 23:22:00,60.0,60.0,-100.00,WSW,254,0.0,0.0,100,0.00,,,0.00,1.000000,,2013-08-03 03:22:00,
2013-08-02 23:32:00,60.0,60.0,-100.00,WSW,254,0.0,0.0,100,0.00,,,0.00,1.000000,,2013-08-03 03:32:00,
2013-08-02 23:43:00,60.0,60.0,-100.00,WSW,254,0.0,0.0,100,0.00,,,0.00,1.000000,,2013-08-03 03:43:00,
2013-08-02 23:53:00,60.0,60.0,-100.00,WSW,254,0.0,0.0,100,0.00,,,0.00,1.000000,,2013-08-03 03:53:00,